This is the latest recevied weather packets stored in our database for station/object JA6CFI-13. If no packets are shown the sender has not sent any weather packets the latest 10 day(s).
| Time | Temp. | Humidity | Pressure | Rain* | Wind** | Luminosity | Snow |
|---|---|---|---|---|---|---|---|
| 1777974123 | 20° C | 57% | 1017.7 hPa | 0 mm | - | - | - |
| 1777973542 | 20.56° C | 53% | 1017.7 hPa | 0 mm | - | - | - |
| 1777972761 | 21.11° C | 50% | 1017.7 hPa | 0 mm | - | - | - |
| 1777972324 | 21.11° C | 50% | 1017.8 hPa | 0 mm | - | - | - |
| 1777971980 | 21.11° C | 49% | 1017.8 hPa | 0 mm | - | - | - |
| 1777971202 | 21.67° C | 49% | 1017.7 hPa | 0 mm | - | - | - |
| 1777970523 | 21.67° C | 51% | 1017.5 hPa | 0 mm | - | - | - |
| 1777970421 | 21.67° C | 52% | 1017.5 hPa | 0 mm | - | - | - |
| 1777969641 | 22.22° C | 51% | 1017.5 hPa | 0 mm | - | - | - |
| 1777968861 | 22.78° C | 51% | 1017.4 hPa | 0 mm | - | - | - |
| 1777968723 | 22.78° C | 51% | 1017.5 hPa | 0 mm | - | - | - |
| 1777968082 | 22.78° C | 51% | 1017.4 hPa | 0 mm | - | - | - |
| 1777967302 | 22.78° C | 49% | 1017.3 hPa | 0 mm | - | - | - |
| 1777966923 | 22.78° C | 50% | 1017.3 hPa | 0 mm | - | - | - |
| 1777966522 | 22.78° C | 50% | 1017.3 hPa | 0 mm | - | - | - |
| 1777965740 | 22.78° C | 50% | 1017.3 hPa | 0 mm | - | - | - |
| 1777965123 | 22.78° C | 51% | 1017.4 hPa | 0 mm | - | - | - |
| 1777964962 | 22.78° C | 52% | 1017.3 hPa | 0 mm | - | - | - |
| 1777964181 | 22.78° C | 52% | 1017.3 hPa | 0 mm | - | - | - |
| 1777963401 | 23.33° C | 52% | 1017.2 hPa | 0 mm | - | - | - |
| 1777963324 | 23.33° C | 52% | 1017.2 hPa | 0 mm | - | - | - |
| 1777962620 | 23.33° C | 48% | 1017.3 hPa | 0 mm | - | - | - |
| 1777961842 | 23.33° C | 51% | 1017.3 hPa | 0 mm | - | - | - |
| 1777961523 | 23.33° C | 52% | 1017.3 hPa | 0 mm | - | - | - |
| 1777961062 | 23.89° C | 50% | 1017.3 hPa | 0 mm | - | - | - |
* Rain latest hour (hover to see other rain measurements)
** Current wind speed in m/s (hover to see current wind gust speed)